Zurück zum Katalog

STARLINK-31770

AktivKommunikationVLEO
NORAD 59601·PAYLOAD·🇺🇸 United States

Gestartet Apr 28, 2024 von Cape Canaveral Space Force Station

Loading…

Nächste Überflüge (nächste 24 Stunden)

TLE

AktuellSource: CelesTrak SupGP

Epoche: Sep 15, 2026, 03:07 UTC

1 59601C 24080A   26258.13034722 -.00026590  00000+0 -96288-3 0  2587
2 59601  43.0044  48.3339 0001737 270.0075  24.6022 15.27598461    12

Verfolge STARLINK-31770 in Echtzeit mit AllMySat

Download on the App Store